Location: Blangy-Tronville
(49.8790°N, 2.4226°E)
Time: 08:35:02
(UTC+00:00)

SJ 16-02 - Pass Details

Date: 18 November 2025
Orbit: 585 x 594 km, 75.0° (Epoch: 13 December)

Event Time Altitude Azimuth Distance (km) Brightness Sun altitude
Rises 18:17:03 0° 202° (SSW) 2,824 5.1 -21.3°
Reaches altitude 10° 18:19:16 10° 203° (SSW) 1,926 4.2 -21.7°
Maximum altitude 18:23:34 84° 291° (WNW) 605 1.2 -22.4°
Enters shadow 18:24:38 51° 15° (NNE) 759 1.6 -22.5°
